Regional Weather Roundup
Issued by NWS

Home | Current Version | Previous Version | Text Only | Print | Product List | Glossary Off
Versions: 1 2 3 4 5 6 7 8 9 10 11 12 13 14 15 16 17 18 19 20 21 22 23 24 25 26 27 28 29 30 31 32 33 34 35 36 37 38 39 40 41 42 43 44 45 46 47 48 49 50

328
ASUS43 KBIS 251602
RWRND

NORTH DAKOTA REGIONAL WEATHER ROUNDUP
NATIONAL WEATHER SERVICE BISMARCK ND
1100 AM CDT SUN SEP 25 2016

NOTE: "FAIR" INDICATES FEW OR NO CLOUDS BELOW 12,000 FEET WITH NO
SIGNIFICANT WEATHER AND/OR OBSTRUCTIONS TO VISIBILITY.


NDZ001>003-009>011-017-251700-
NORTHWEST NORTH DAKOTA

CITY           SKY/WX    TMP DP  RH WIND       PRES   REMARKS
WILLISTON      SUNNY     54  39  57 NW22G29   30.18R
MINOT          SUNNY     56  43  61 W28G39    30.01R
MINOT AFB      SUNNY     55  43  64 NW35G41   29.99R
$$

NDZ018>021-031>035-040>046-251700-
SOUTHWEST NORTH DAKOTA

CITY           SKY/WX    TMP DP  RH WIND       PRES   REMARKS
BISMARCK       SUNNY     57  44  62 NW23G41   30.06R
DICKINSON      SUNNY     51  39  63 NW22G33   30.18R
GARRISON         N/A     54  43  66 NW25G40   30.04R
HETTINGER ARPT SUNNY     53  38  56 NW25G36   30.24R
$$

NDZ004>008-012>016-024-026-027-054-251700-
NORTHEAST NORTH DAKOTA

CITY           SKY/WX    TMP DP  RH WIND       PRES   REMARKS
GRAND FORKS    LGT RAIN  57  53  86 W20G29    29.72R
GRND FRKS AFB  CLOUDY    56  52  84 NW20G29   29.75R
DEVILS LAKE    LGT RAIN  52  49  89 NW28G38   29.83S
$$

NDZ022-023-025-028>030-036>039-047>053-251700-
SOUTHEAST NORTH DAKOTA

CITY           SKY/WX    TMP DP  RH WIND       PRES   REMARKS
FARGO          CLOUDY    59  51  75 W25       29.79R
JAMESTOWN      PTSUNNY   56  48  74 NW28G44   29.88R
$$





USA.gov is the U.S. government's official web portal to all federal, state and local government web resources and services.